Retour au catalogue

SDA_1669

ActifMilitairePO
NORAD 65979·PAYLOAD·🇺🇸 United States

Lancé Oct 15, 2025 depuis Vandenberg Space Force Base

Loading…

Prochains Passages (prochaines 24 heures)

TLE

FraisSource: Space-Track

Époque: Sep 14, 2026, 15:49 UTC

1 65979U 25230F   26257.65945483  .00000153  00000-0  13255-3 0  9992
2 65979  81.3000 128.9322 0003342 342.8403  17.2639 13.81708526 46181

Suivez SDA_1669 en temps réel avec AllMySat

Download on the App Store